Orbital Elements at Epoch 2459200.5 (2020-Dec-17.0) TDB
Reference: JPL 28 (heliocentric ecliptic J2000)
Element | Value | Uncertainty (1-sigma) | Units |
e | .1828720840554767 | 3.8206e-08 | |
a | 2.657586808394005 | 1.2143e-08 | au |
q | 2.171588370184651 | 1.0363e-07 | au |
i | 10.76726697270534 | 4.3628e-06 | deg |
node | 288.14762054906 | 2.1295e-05 | deg |
peri | 83.37752221007169 | 2.4412e-05 | deg |
M | 326.5177220828657 | 1.3488e-05 | deg |
tp | 2459347.677733997143 (2021-May-13.17773400) | 5.9821e-05 | TDB |
period | 1582.448612669126 4.33 | 1.0846e-05 2.969e-08 | d yr |
n | .2274955389500995 | 1.5592e-09 | deg/d |
Q | 3.14358524660336 | 1.4363e-08 | au |
|
| | Orbit Determination Parameters
Additional Information
|